Home > Weather > Kiel > Past weeks

Flag for Germany Past Weather in Kiel, Schleswig-Holstein, Germany — Yesterday and Last 2 Weeks

Now
63 °F

Drizzle. Mostly cloudy.


Feels Like: 63 °F
Forecast: 53 / 62 °F
Wind: 12 mph from Southwest

Location: Kiel / Holtenau Civilian

Current Time: Jul 1, 2016 at 12:02:16 PM

Latest Report: Jul 1, 2016 at 11:20 AM


Visibility: 4 mi

Pressure: 29.83 "Hg

Humidity: 100%

Dew Point: 63 °F

Location of KielLocation

Past Weather in Kiel — Graph

°F

Kiel Temperature Yesterday

Maximum temperature yesterday: 66 °F (at 1:50 PM)
Minimum temperature yesterday: 59 °F (at 8:20 AM)
Average temperature yesterday: 63 °F

High & Low Weather Summary for the Past Weeks

 TemperatureHumidityPressure
High84 °F (Jun 23, 4:50 PM)100% (Jun 17, 6:50 AM)30.18 "Hg (Jun 17, 6:50 AM)
Low55 °F (Jun 19, 8:20 AM)46% (Jun 20, 2:50 PM)29.56 "Hg (Jun 17, 6:50 AM)
Average66 °F79%29.95 "Hg
* Reported Jun 16 10:20 AM — Jul 1 10:50 AM, Kiel, Weather by CustomWeather, © 2016

Note: Actual official high and low records may vary slightly from our data, if they occured in-between our weather recording intervals... More about our weather records

Advertising

Kiel Weather History for the Previous 24 Hours

Scroll right to see more
 ConditionsComfort  
Time TempWeatherWind HumidityBarometerVisibility
10:50 AM
Fri, Jul 1
63 °FMostly cloudy.9 mph100%29.83 "HgN/A
10:20 AM63 °FDrizzle. Overcast.14 mph100%29.83 "HgN/A
9:50 AM63 °FMostly cloudy.14 mph94%29.83 "HgN/A
9:20 AM64 °FPartly sunny.14 mph88%29.80 "HgN/A
8:50 AM63 °FMostly cloudy.15 mph94%29.83 "HgN/A
8:20 AM63 °FPartly sunny.10 mph100%29.80 "HgN/A
7:50 AM61 °FCloudy.10 mph100%29.80 "HgN/A
7:20 AM61 °FPartly sunny.9 mph100%29.83 "HgN/A
5:50 PM
Thu, Jun 30
66 °FPartly sunny.N/A83%29.86 "HgN/A
5:20 PM64 °FPartly sunny.7 mph94%29.86 "HgN/A
4:50 PM64 °FScattered showers. Broken clouds.8 mph94%29.86 "HgN/A
4:20 PM63 °FScattered clouds.12 mph94%29.86 "HgN/A
3:50 PM64 °FBroken clouds.12 mph83%29.83 "HgN/A
2:20 PM64 °FMostly cloudy.12 mph83%29.83 "HgN/A
1:50 PM66 °FPartly sunny.13 mph83%29.83 "HgN/A
12:50 PM63 °FDrizzle. Mostly cloudy.10 mph94%29.83 "HgN/A
12:20 PM63 °FDrizzle. Overcast.15 mph88%29.83 "HgN/A
Weather by CustomWeather, © 2016

See weather overviewHow to use our weather pages